Retour au catalogue

STARLINK-1526

ActifCommunicationsVLEO
NORAD 46029·PAYLOAD·🇺🇸 United States

Lancé Aug 7, 2020 depuis Cape Canaveral Space Force Station

Loading…

Prochains Passages (prochaines 24 heures)

TLE

FraisSource: CelesTrak SupGP

Époque: Sep 15, 2026, 00:52 UTC

1 46029C 20055C   26258.03659722  .00049835  00000+0  16025-2 0  2582
2 46029  53.1591 326.2431 0001288  87.9576 279.5678 15.31678863    12

Suivez STARLINK-1526 en temps réel avec AllMySat

Download on the App Store